,,Stat6,,Stat2,,Stat8,,Stat9,,Stat10,,Wind1,,Wind1,
time,status,PA1M_AVG,status,PR1M_SUM,status,RH1M_AVG,status,SR1M_AVG,status,TA1M_AVG,status,W1dAve1m,status,W1sAve1m,
2004-12-13, 00:00:00,VALID,919.244,VALID,0,VALID,91.4195,VALID,-0.0169808,VALID,20.6998,VALID,139,VALID,1.25425,
2004-12-13, 00:01:00,VALID,919.232,VALID,0,VALID,91.7043,VALID,-0.0169808,VALID,20.6874,VALID,150,VALID,1.38445,
2004-12-13, 00:02:00,VALID,919.225,VALID,0,VALID,91.8493,VALID,-0.0339617,VALID,20.6406,VALID,134,VALID,1.73384,
2004-12-13, 00:03:00,VALID,919.215,VALID,0,VALID,91.979,VALID,0.101885,VALID,20.6272,VALID,129,VALID,1.70082,
2004-12-13, 00:04:00,VALID,919.193,VALID,0,VALID,92.2015,VALID,0.0339617,VALID,20.6046,VALID,129,VALID,1.47475,
2004-12-13, 00:05:00,VALID,919.18,VALID,0,VALID,92.3147,VALID,0.0509425,VALID,20.5718,VALID,125,VALID,1.6109,
2004-12-13, 00:06:00,VALID,919.174,VALID,0,VALID,92.2282,VALID,0.0679233,VALID,20.5628,VALID,105,VALID,1.53869,
2004-12-13, 00:07:00,VALID,919.169,VALID,0,VALID,92.3795,VALID,0.0509425,VALID,20.5529,VALID,100,VALID,1.24535,
2004-12-13, 00:08:00,VALID,919.136,VALID,0,VALID,92.3401,VALID,0.0849042,VALID,20.5499,VALID,134,VALID,1.54201,
2004-12-13, 00:09:00,VALID,919.112,VALID,0,VALID,92.3007,VALID,0.0169808,VALID,20.5367,VALID,137,VALID,1.82778,
2004-12-13, 00:10:00,VALID,919.101,VALID,0,VALID,92.2422,VALID,0.0339617,VALID,20.5464,VALID,112,VALID,1.62713,
2004-12-13, 00:11:00,VALID,919.081,VALID,0,VALID,92.2371,VALID,0.0679233,VALID,20.5462,VALID,145,VALID,1.19196,
2004-12-13, 00:12:00,VALID,919.074,VALID,0,VALID,92.2638,VALID,0.0339617,VALID,20.5499,VALID,143,VALID,1.05107,
2004-12-13, 00:13:00,VALID,919.059,VALID,0,VALID,92.3706,VALID,0.0339617,VALID,20.5534,VALID,125,VALID,1.78374,
2004-12-13, 00:14:00,VALID,919.059,VALID,0,VALID,92.4952,VALID,0.0679233,VALID,20.537,VALID,123,VALID,1.0745,
2004-12-13, 00:15:00,VALID,919.058,VALID,0,VALID,92.6148,VALID,0.0169808,VALID,20.5276,VALID,129,VALID,1.32919,
2004-12-13, 00:16:00,VALID,919.038,VALID,0,VALID,92.7788,VALID,0.0169808,VALID,20.4885,VALID,120,VALID,1.55451,
2004-12-13, 00:17:00,VALID,919.019,VALID,0,VALID,92.9581,VALID,0.0339617,VALID,20.4697,VALID,120,VALID,1.39135,
2004-12-13, 00:18:00,VALID,919.008,VALID,0,VALID,93.201,VALID,0.0169808,VALID,20.4339,VALID,103,VALID,1.2043,
2004-12-13, 00:19:00,VALID,918.993,VALID,0,VALID,93.3256,VALID,0.0339617,VALID,20.3951,VALID,89,VALID,1.2803,
2004-12-13, 00:20:00,VALID,918.996,VALID,0,VALID,93.0395,VALID,0.0339617,VALID,20.3621,VALID,99,VALID,1.54812,
2004-12-13, 00:21:00,VALID,918.972,VALID,0,VALID,92.8513,VALID,0.0339617,VALID,20.3752,VALID,114,VALID,1.96112,
2004-12-13, 00:22:00,VALID,918.956,VALID,0,VALID,92.6428,VALID,0.0849042,VALID,20.3879,VALID,116,VALID,1.30134,
2004-12-13, 00:23:00,VALID,918.931,VALID,0,VALID,92.6275,VALID,0.0339617,VALID,20.4048,VALID,104,VALID,1.76308,
2004-12-13, 00:24:00,VALID,918.943,VALID,0,VALID,92.8208,VALID,0.0339617,VALID,20.418,VALID,82,VALID,1.04809,
2004-12-13, 00:25:00,VALID,918.933,VALID,0,VALID,92.6949,VALID,0.0339617,VALID,20.3852,VALID,118,VALID,1.61156,
2004-12-13, 00:26:00,VALID,918.934,VALID,0,VALID,92.4863,VALID,0.0679233,VALID,20.3916,VALID,107,VALID,1.89435,
2004-12-13, 00:27:00,VALID,918.895,VALID,0,VALID,92.4558,VALID,0.0169808,VALID,20.408,VALID,111,VALID,1.73884,
2004-12-13, 00:28:00,VALID,918.878,VALID,0,VALID,92.2536,VALID,0.0339617,VALID,20.418,VALID,123,VALID,1.99219,
2004-12-13, 00:29:00,VALID,918.865,VALID,0,VALID,92.2079,VALID,0.0339617,VALID,20.4304,VALID,118,VALID,1.84025,
2004-12-13, 00:30:00,VALID,918.844,VALID,0,VALID,92.4673,VALID,0.0339617,VALID,20.4202,VALID,115,VALID,1.74339,
2004-12-13, 00:31:00,VALID,918.834,VALID,0,VALID,92.3846,VALID,0.0339617,VALID,20.4145,VALID,114,VALID,2.1101,
2004-12-13, 00:32:00,VALID,918.825,VALID,0,VALID,92.1099,VALID,0.0169808,VALID,20.4177,VALID,114,VALID,1.59052,
2004-12-13, 00:33:00,VALID,918.819,VALID,0,VALID,92.129,VALID,-0.0679233,VALID,20.4449,VALID,91,VALID,1.39008,
2004-12-13, 00:34:00,VALID,918.823,VALID,0,VALID,91.9027,VALID,-0.0509425,VALID,20.4578,VALID,111,VALID,2.23535,
2004-12-13, 00:35:00,VALID,918.815,VALID,0,VALID,92.0578,VALID,-0.0509425,VALID,20.471,VALID,116,VALID,1.93229,
2004-12-13, 00:36:00,VALID,918.815,VALID,0,VALID,91.9497,VALID,-0.101885,VALID,20.4742,VALID,108,VALID,2.03906,
2004-12-13, 00:37:00,VALID,918.802,VALID,0,VALID,91.8645,VALID,-0.0339617,VALID,20.4801,VALID,105,VALID,1.69586,
2004-12-13, 00:38:00,VALID,918.783,VALID,0,VALID,92.0591,VALID,-0.0339617,VALID,20.4866,VALID,119,VALID,2.21545,
2004-12-13, 00:39:00,VALID,918.766,VALID,0,VALID,92.0871,VALID,-0.0339617,VALID,20.471,VALID,124,VALID,2.26181,
2004-12-13, 00:40:00,VALID,918.737,VALID,0,VALID,92.1773,VALID,-0.0849042,VALID,20.4543,VALID,116,VALID,2.62573,
2004-12-13, 00:41:00,VALID,918.703,VALID,0,VALID,92.4189,VALID,-0.0849042,VALID,20.4387,VALID,90,VALID,1.46001,
2004-12-13, 00:42:00,VALID,918.687,VALID,0,VALID,92.3528,VALID,-0.0509425,VALID,20.4287,VALID,116,VALID,1.52575,
2004-12-13, 00:43:00,VALID,918.673,VALID,0,VALID,92.5181,VALID,-0.0849042,VALID,20.4098,VALID,108,VALID,1.25949,
2004-12-13, 00:44:00,VALID,918.652,VALID,0,VALID,92.4685,VALID,-0.0339617,VALID,20.3808,VALID,120,VALID,2.5465,
2004-12-13, 00:45:00,VALID,918.641,VALID,0,VALID,91.9917,VALID,-0.101885,VALID,20.384,VALID,85,VALID,1.99144,
2004-12-13, 00:46:00,VALID,918.605,VALID,0,VALID,92.2308,VALID,-0.0679233,VALID,20.3969,VALID,81,VALID,1.54367,
2004-12-13, 00:47:00,VALID,918.598,VALID,0,VALID,92.2587,VALID,-0.0339617,VALID,20.387,VALID,91,VALID,1.55735,
2004-12-13, 00:48:00,VALID,918.598,VALID,0,VALID,92.3668,VALID,0.0679233,VALID,20.3586,VALID,90,VALID,1.62726,
2004-12-13, 00:49:00,VALID,918.599,VALID,0,VALID,92.4139,VALID,0.0679233,VALID,20.3496,VALID,94,VALID,2.01617,
2004-12-13, 00:50:00,VALID,918.573,VALID,0,VALID,92.5982,VALID,0.0169808,VALID,20.3402,VALID,122,VALID,2.36381,
2004-12-13, 00:51:00,VALID,918.544,VALID,0,VALID,92.7458,VALID,0.0339617,VALID,20.3106,VALID,135,VALID,1.16536,
2004-12-13, 00:52:00,VALID,918.523,VALID,0,VALID,93.0039,VALID,0.0509425,VALID,20.2915,VALID,106,VALID,1.56359,
2004-12-13, 00:53:00,VALID,918.495,VALID,0,VALID,92.7826,VALID,0.0339617,VALID,20.2649,VALID,120,VALID,2.75903,
2004-12-13, 00:54:00,VALID,918.473,VALID,0,VALID,92.7241,VALID,0.0169808,VALID,20.2853,VALID,87,VALID,2.00881,
2004-12-13, 00:55:00,VALID,918.471,VALID,0,VALID,92.3427,VALID,0.0339617,VALID,20.2856,VALID,104,VALID,2.27548,
2004-12-13, 00:56:00,VALID,918.452,VALID,0,VALID,92.0578,VALID,0.0509425,VALID,20.3139,VALID,98,VALID,2.52671,
2004-12-13, 00:57:00,VALID,918.435,VALID,0,VALID,92.0082,VALID,0.0679233,VALID,20.3429,VALID,123,VALID,1.82955,
2004-12-13, 00:58:00,VALID,918.417,VALID,0,VALID,92.0235,VALID,0.0679233,VALID,20.3462,VALID,118,VALID,1.68211,
2004-12-13, 00:59:00,VALID,918.438,VALID,0,VALID,92.143,VALID,0.0849042,VALID,20.33,VALID,113,VALID,1.85302,
2004-12-13, 01:00:00,VALID,918.418,VALID,0,VALID,91.9268,VALID,0.0679233,VALID,20.3238,VALID,123,VALID,2.01962,
2004-12-13, 01:01:00,VALID,918.408,VALID,0,VALID,91.9396,VALID,0.0509425,VALID,20.3136,VALID,113,VALID,1.64958,
2004-12-13, 01:02:00,VALID,918.398,VALID,0,VALID,92.1506,VALID,0.0679233,VALID,20.3074,VALID,103,VALID,1.42511,
2004-12-13, 01:03:00,VALID,918.384,VALID,0,VALID,91.9408,VALID,-0.0339617,VALID,20.2958,VALID,126,VALID,2.32571,
2004-12-13, 01:04:00,VALID,918.368,VALID,0,VALID,91.998,VALID,-0.0169808,VALID,20.3084,VALID,106,VALID,2.40434,
2004-12-13, 01:05:00,VALID,918.351,VALID,0,VALID,92.1494,VALID,-0.0339617,VALID,20.3052,VALID,108,VALID,2.01882,
2004-12-13, 01:06:00,VALID,918.332,VALID,0,VALID,92.3477,VALID,-0.0509425,VALID,20.2769,VALID,109,VALID,1.6061,
2004-12-13, 01:07:00,VALID,918.322,VALID,0,VALID,92.4075,VALID,-0.0679233,VALID,20.2381,VALID,118,VALID,2.1161,
2004-12-13, 01:08:00,VALID,918.316,VALID,0,VALID,92.1735,VALID,-0.0849042,VALID,20.2317,VALID,102,VALID,2.03052,
2004-12-13, 01:09:00,VALID,918.324,VALID,0,VALID,92.2981,VALID,-0.0509425,VALID,20.2446,VALID,115,VALID,1.86537,
2004-12-13, 01:10:00,VALID,918.326,VALID,0,VALID,92.3605,VALID,-0.0679233,VALID,20.2419,VALID,112,VALID,1.60618,
2004-12-13, 01:11:00,VALID,918.305,VALID,0,VALID,91.9828,VALID,-0.0679233,VALID,20.2319,VALID,99,VALID,1.67206,
2004-12-13, 01:12:00,VALID,918.302,VALID,0,VALID,92.082,VALID,-0.0509425,VALID,20.2739,VALID,120,VALID,1.28311,
2004-12-13, 01:13:00,VALID,918.296,VALID,0,VALID,92.2587,VALID,-0.0509425,VALID,20.2642,VALID,106,VALID,1.40918,
2004-12-13, 01:14:00,VALID,918.273,VALID,0,VALID,92.3198,VALID,-0.0849042,VALID,20.2451,VALID,97,VALID,1.53553,
2004-12-13, 01:15:00,VALID,918.244,VALID,0,VALID,92.2295,VALID,-0.0339617,VALID,20.215,VALID,122,VALID,2.13188,
2004-12-13, 01:16:00,VALID,918.223,VALID,0,VALID,91.9434,VALID,-0.0679233,VALID,20.261,VALID,113,VALID,2.05256,
2004-12-13, 01:17:00,VALID,918.225,VALID,0,VALID,92.1888,VALID,-0.0849042,VALID,20.2806,VALID,98,VALID,1.41957,
2004-12-13, 01:18:00,VALID,918.2,VALID,0,VALID,92.3249,VALID,-0.0849042,VALID,20.2508,VALID,95,VALID,1.49647,
2004-12-13, 01:19:00,VALID,918.183,VALID,0,VALID,92.363,VALID,-0.0679233,VALID,20.222,VALID,100,VALID,1.99257,
2004-12-13, 01:20:00,VALID,918.177,VALID,0,VALID,92.3643,VALID,-0.0509425,VALID,20.2023,VALID,118,VALID,1.66462,
2004-12-13, 01:21:00,VALID,918.158,VALID,0,VALID,92.3109,VALID,-0.0679233,VALID,20.1932,VALID,101,VALID,1.98242,
2004-12-13, 01:22:00,VALID,918.151,VALID,0,VALID,92.3884,VALID,-0.0679233,VALID,20.2031,VALID,102,VALID,1.50581,
2004-12-13, 01:23:00,VALID,918.138,VALID,0,VALID,92.4952,VALID,-0.0509425,VALID,20.1773,VALID,108,VALID,1.39521,
2004-12-13, 01:24:00,VALID,918.143,VALID,0,VALID,92.6122,VALID,-0.0339617,VALID,20.1576,VALID,106,VALID,1.57177,
2004-12-13, 01:25:00,VALID,918.146,VALID,0,VALID,92.7941,VALID,-0.0169808,VALID,20.138,VALID,93,VALID,1.67024,
2004-12-13, 01:26:00,VALID,918.136,VALID,0,VALID,92.92,VALID,-0.0679233,VALID,20.1318,VALID,89,VALID,1.15606,
2004-12-13, 01:27:00,VALID,918.127,VALID,0,VALID,92.9034,VALID,-0.0679233,VALID,20.1189,VALID,119,VALID,2.05755,
2004-12-13, 01:28:00,VALID,918.114,VALID,0,VALID,92.7903,VALID,-0.0509425,VALID,20.1318,VALID,105,VALID,1.5685,
2004-12-13, 01:29:00,VALID,918.104,VALID,0,VALID,92.7788,VALID,-0.0849042,VALID,20.1547,VALID,126,VALID,1.96439,
2004-12-13, 01:30:00,VALID,918.079,VALID,0,VALID,92.6326,VALID,-0.0679233,VALID,20.1773,VALID,123,VALID,2.43359,
2004-12-13, 01:31:00,VALID,918.044,VALID,0,VALID,92.3948,VALID,-0.0509425,VALID,20.2066,VALID,133,VALID,2.36776,
2004-12-13, 01:32:00,VALID,918.041,VALID,0,VALID,92.1621,VALID,-0.0849042,VALID,20.2384,VALID,136,VALID,2.58803,
2004-12-13, 01:33:00,VALID,918.059,VALID,0,VALID,92.1417,VALID,0,VALID,20.2704,VALID,121,VALID,1.69829,
2004-12-13, 01:34:00,VALID,918.039,VALID,0,VALID,91.9917,VALID,-0.0169808,VALID,20.2893,VALID,114,VALID,2.78427,
2004-12-13, 01:35:00,VALID,918.022,VALID,0,VALID,92.04,VALID,-0.0169808,VALID,20.3119,VALID,111,VALID,1.05556,
2004-12-13, 01:36:00,VALID,918,VALID,0,VALID,92.1583,VALID,0,VALID,20.3087,VALID,103,VALID,1.76055,
2004-12-13, 01:37:00,VALID,917.972,VALID,0,VALID,92.3363,VALID,0.0169808,VALID,20.296,VALID,85,VALID,2.85747,
2004-12-13, 01:38:00,VALID,917.945,VALID,0,VALID,92.3159,VALID,0,VALID,20.2801,VALID,97,VALID,1.39827,
2004-12-13, 01:39:00,VALID,917.93,VALID,0,VALID,92.4724,VALID,-0.0169808,VALID,20.2834,VALID,65,VALID,1.37682,
2004-12-13, 01:40:00,VALID,917.893,VALID,0,VALID,92.7597,VALID,0.0169808,VALID,20.2505,VALID,66,VALID,1.37184,
2004-12-13, 01:41:00,VALID,917.889,VALID,0,VALID,92.7572,VALID,0,VALID,20.2182,VALID,92,VALID,1.44635,
2004-12-13, 01:42:00,VALID,917.885,VALID,0,VALID,92.9123,VALID,0,VALID,20.2023,VALID,89,VALID,1.38662,
2004-12-13, 01:43:00,VALID,917.875,VALID,0,VALID,93.0891,VALID,0,VALID,20.1924,VALID,105,VALID,1.11991,
2004-12-13, 01:44:00,VALID,917.831,VALID,0,VALID,92.9696,VALID,0,VALID,20.1695,VALID,88,VALID,1.61233,
2004-12-13, 01:45:00,VALID,917.828,VALID,0,VALID,92.728,VALID,-0.0169808,VALID,20.1797,VALID,80,VALID,1.40253,
2004-12-13, 01:46:00,VALID,917.832,VALID,0,VALID,92.7063,VALID,0.0169808,VALID,20.2118,VALID,81,VALID,1.15116,
2004-12-13, 01:47:00,VALID,917.821,VALID,0,VALID,92.9123,VALID,0.0339617,VALID,20.2118,VALID,80,VALID,1.80287,
2004-12-13, 01:48:00,VALID,917.84,VALID,0,VALID,93.1298,VALID,0.0169808,VALID,20.212,VALID,114,VALID,0.977364,
2004-12-13, 01:49:00,VALID,917.84,VALID,0,VALID,93.4222,VALID,-0.0339617,VALID,20.1825,VALID,131,VALID,1.41051,
2004-12-13, 01:50:00,VALID,917.851,VALID,0,VALID,93.5125,VALID,0.0169808,VALID,20.1606,VALID,121,VALID,1.5322,
2004-12-13, 01:51:00,VALID,917.85,VALID,0,VALID,93.6944,VALID,0.0169808,VALID,20.1308,VALID,104,VALID,1.40004,
2004-12-13, 01:52:00,VALID,917.837,VALID,0,VALID,93.9029,VALID,0.0339617,VALID,20.1114,VALID,112,VALID,1.2474,
2004-12-13, 01:53:00,VALID,917.823,VALID,0,VALID,94.0847,VALID,0,VALID,20.0987,VALID,86,VALID,1.37092,
2004-12-13, 01:54:00,VALID,917.844,VALID,0,VALID,94.2412,VALID,0,VALID,20.0796,VALID,91,VALID,1.05097,
2004-12-13, 01:55:00,VALID,917.849,VALID,0,VALID,94.3302,VALID,0,VALID,20.0597,VALID,99,VALID,1.20399,
2004-12-13, 01:56:00,VALID,917.846,VALID,0,VALID,94.4281,VALID,0,VALID,20.05,VALID,100,VALID,1.22828,
2004-12-13, 01:57:00,VALID,917.827,VALID,0,VALID,94.498,VALID,0.0339617,VALID,20.0237,VALID,120,VALID,1.73028,
2004-12-13, 01:58:00,VALID,917.819,VALID,0,VALID,94.5794,VALID,0,VALID,20.014,VALID,118,VALID,1.58166,
2004-12-13, 01:59:00,VALID,917.804,VALID,0,VALID,94.8159,VALID,0.0339617,VALID,20.011,VALID,108,VALID,1.43872,
2004-12-13, 02:00:00,VALID,917.791,VALID,0,VALID,95.0346,VALID,0.0339617,VALID,19.9989,VALID,75,VALID,1.1143,
2004-12-13, 02:01:00,VALID,917.781,VALID,0,VALID,95.3029,VALID,0,VALID,19.983,VALID,104,VALID,1.40698,
2004-12-13, 02:02:00,VALID,917.753,VALID,0,VALID,95.4606,VALID,0,VALID,19.9469,VALID,111,VALID,1.46366,
2004-12-13, 02:03:00,VALID,917.727,VALID,0,VALID,95.7518,VALID,0.0169808,VALID,19.9111,VALID,90,VALID,1.23028,
2004-12-13, 02:04:00,VALID,917.709,VALID,0,VALID,96.0532,VALID,0,VALID,19.8791,VALID,108,VALID,1.01278,
2004-12-13, 02:05:00,VALID,917.693,VALID,0,VALID,96.1498,VALID,-0.0169808,VALID,19.8597,VALID,95,VALID,1.45195,
2004-12-13, 02:06:00,VALID,917.685,VALID,0,VALID,96.3291,VALID,0,VALID,19.8143,VALID,98,VALID,1.70082,
2004-12-13, 02:07:00,VALID,917.651,VALID,0,VALID,96.427,VALID,0,VALID,19.7989,VALID,127,VALID,1.60429,
2004-12-13, 02:08:00,VALID,917.649,VALID,0,VALID,96.5949,VALID,0,VALID,19.7526,VALID,124,VALID,1.99346,
2004-12-13, 02:09:00,VALID,917.624,VALID,0,VALID,96.6381,VALID,0.0169808,VALID,19.7335,VALID,102,VALID,2.29542,
2004-12-13, 02:10:00,VALID,917.592,VALID,0,VALID,96.7996,VALID,0,VALID,19.7338,VALID,135,VALID,1.51451,
2004-12-13, 02:11:00,VALID,917.575,VALID,0,VALID,96.9789,VALID,0.0169808,VALID,19.7077,VALID,140,VALID,1.49546,
2004-12-13, 02:12:00,VALID,917.546,VALID,0,VALID,97.0285,VALID,0,VALID,19.6953,VALID,138,VALID,2.23383,
2004-12-13, 02:13:00,VALID,917.531,VALID,0,VALID,97.1531,VALID,0.0169808,VALID,19.6791,VALID,153,VALID,1.92702,
2004-12-13, 02:14:00,VALID,917.518,VALID,0,VALID,97.1697,VALID,0,VALID,19.6699,VALID,145,VALID,2.29421,
2004-12-13, 02:15:00,VALID,917.501,VALID,0,VALID,97.3108,VALID,0.0169808,VALID,19.65,VALID,150,VALID,1.48158,
2004-12-13, 02:16:00,VALID,917.493,VALID,0,VALID,97.457,VALID,0,VALID,19.6339,VALID,157,VALID,1.72337,
2004-12-13, 02:17:00,VALID,917.507,VALID,0,VALID,97.5435,VALID,0.0169808,VALID,19.6081,VALID,151,VALID,1.9393,
2004-12-13, 02:18:00,VALID,917.499,VALID,0,VALID,97.6694,VALID,-0.0849042,VALID,19.6031,VALID,149,VALID,1.46632,
2004-12-13, 02:19:00,VALID,917.495,VALID,0,VALID,97.808,VALID,-0.0849042,VALID,19.571,VALID,150,VALID,1.84318,
2004-12-13, 02:20:00,VALID,917.483,VALID,0,VALID,97.9682,VALID,-0.0849042,VALID,19.5447,VALID,135,VALID,1.73037,
2004-12-13, 02:21:00,VALID,917.489,VALID,0,VALID,98.2149,VALID,-0.0679233,VALID,19.5323,VALID,147,VALID,1.43626,
2004-12-13, 02:22:00,VALID,917.454,VALID,0,VALID,98.3828,VALID,-0.101885,VALID,19.5196,VALID,142,VALID,1.49572,
2004-12-13, 02:23:00,VALID,917.433,VALID,0,VALID,98.5277,VALID,-0.101885,VALID,19.497,VALID,152,VALID,1.04836,
2004-12-13, 02:24:00,VALID,917.419,VALID,0,VALID,98.6206,VALID,-0.101885,VALID,19.4871,VALID,144,VALID,1.70434,
2004-12-13, 02:25:00,VALID,917.403,VALID,0,VALID,98.6574,VALID,-0.118866,VALID,19.4808,VALID,155,VALID,1.73319,
2004-12-13, 02:26:00,VALID,917.38,VALID,0,VALID,98.6981,VALID,-0.118866,VALID,19.4776,VALID,141,VALID,1.53258,
2004-12-13, 02:27:00,VALID,917.375,VALID,0,VALID,98.7706,VALID,-0.101885,VALID,19.4709,VALID,150,VALID,1.47584,
2004-12-13, 02:28:00,VALID,917.358,VALID,0,VALID,98.7401,VALID,-0.101885,VALID,19.4677,VALID,152,VALID,2.09126,
2004-12-13, 02:29:00,VALID,917.33,VALID,0,VALID,98.6053,VALID,-0.0849042,VALID,19.4841,VALID,139,VALID,1.73493,
2004-12-13, 02:30:00,VALID,917.296,VALID,0,VALID,98.5494,VALID,-0.101885,VALID,19.497,VALID,149,VALID,1.79241,
2004-12-13, 02:31:00,VALID,917.285,VALID,0,VALID,98.4171,VALID,-0.0849042,VALID,19.5097,VALID,146,VALID,1.92042,
2004-12-13, 02:32:00,VALID,917.27,VALID,0,VALID,98.262,VALID,-0.0849042,VALID,19.5154,VALID,146,VALID,1.93837,
2004-12-13, 02:33:00,VALID,917.236,VALID,0,VALID,98.1564,VALID,0,VALID,19.5241,VALID,130,VALID,1.82376,
2004-12-13, 02:34:00,VALID,917.212,VALID,0,VALID,98.0127,VALID,0,VALID,19.5504,VALID,133,VALID,1.7976,
2004-12-13, 02:35:00,VALID,917.178,VALID,0,VALID,97.9301,VALID,0,VALID,19.5668,VALID,146,VALID,1.754,
2004-12-13, 02:36:00,VALID,917.165,VALID,0,VALID,97.9097,VALID,-0.0169808,VALID,19.5765,VALID,143,VALID,1.34263,
2004-12-13, 02:37:00,VALID,917.184,VALID,0,VALID,97.8589,VALID,-0.0169808,VALID,19.5825,VALID,129,VALID,1.55214,
2004-12-13, 02:38:00,VALID,917.181,VALID,0,VALID,97.8563,VALID,-0.0169808,VALID,19.5859,VALID,131,VALID,1.74297,
2004-12-13, 02:39:00,VALID,917.162,VALID,0,VALID,97.8462,VALID,-0.0339617,VALID,19.5924,VALID,141,VALID,1.21802,
2004-12-13, 02:40:00,VALID,917.181,VALID,0,VALID,97.8284,VALID,0,VALID,19.5924,VALID,135,VALID,1.17899,
2004-12-13, 02:41:00,VALID,917.186,VALID,0,VALID,97.8563,VALID,0,VALID,19.6091,VALID,105,VALID,1.16692,
2004-12-13, 02:42:00,VALID,917.175,VALID,0,VALID,97.7889,VALID,0,VALID,19.5919,VALID,127,VALID,1.69265,
2004-12-13, 02:43:00,VALID,917.18,VALID,0,VALID,97.6783,VALID,0,VALID,19.6086,VALID,139,VALID,1.46935,
2004-12-13, 02:44:00,VALID,917.171,VALID,0,VALID,97.4939,VALID,0,VALID,19.6279,VALID,139,VALID,1.64098,
2004-12-13, 02:45:00,VALID,917.166,VALID,0,VALID,97.4876,VALID,0,VALID,19.6376,VALID,140,VALID,1.42188,
2004-12-13, 02:46:00,VALID,917.159,VALID,0,VALID,97.3922,VALID,-0.0169808,VALID,19.6543,VALID,151,VALID,2.04615,
2004-12-13, 02:47:00,VALID,917.149,VALID,0,VALID,97.4647,VALID,0.0169808,VALID,19.6409,VALID,144,VALID,1.56855,
2004-12-13, 02:48:00,VALID,917.145,VALID,0,VALID,97.4354,VALID,0,VALID,19.6508,VALID,135,VALID,1.31014,
2004-12-13, 02:49:00,VALID,917.162,VALID,0,VALID,97.4914,VALID,0,VALID,19.6503,VALID,138,VALID,1.13635,
2004-12-13, 02:50:00,VALID,917.153,VALID,0,VALID,97.4634,VALID,0,VALID,19.6572,VALID,131,VALID,1.45668,
2004-12-13, 02:51:00,VALID,917.136,VALID,0,VALID,97.4316,VALID,-0.0169808,VALID,19.6508,VALID,140,VALID,1.63164,
2004-12-13, 02:52:00,VALID,917.137,VALID,0,VALID,97.4698,VALID,0,VALID,19.6441,VALID,120,VALID,1.20767,
2004-12-13, 02:53:00,VALID,917.113,VALID,0,VALID,97.4278,VALID,-0.0169808,VALID,19.6411,VALID,120,VALID,1.26643,
2004-12-13, 02:54:00,VALID,917.106,VALID,0,VALID,97.3451,VALID,-0.0169808,VALID,19.6448,VALID,135,VALID,1.26119,
2004-12-13, 02:55:00,VALID,917.081,VALID,0,VALID,97.1531,VALID,-0.0169808,VALID,19.6806,VALID,129,VALID,1.77344,
2004-12-13, 02:56:00,VALID,917.072,VALID,0,VALID,96.7895,VALID,-0.0169808,VALID,19.6928,VALID,137,VALID,1.96693,
2004-12-13, 02:57:00,VALID,917.06,VALID,0,VALID,96.4728,VALID,-0.0169808,VALID,19.7412,VALID,113,VALID,1.12519,
2004-12-13, 02:58:00,VALID,917.036,VALID,0,VALID,96.3927,VALID,-0.0169808,VALID,19.7668,VALID,135,VALID,1.07847,
2004-12-13, 02:59:00,VALID,917.028,VALID,0,VALID,96.4563,VALID,-0.0169808,VALID,19.7869,VALID,149,VALID,1.37686,
2004-12-13, 03:00:00,VALID,917.002,VALID,0,VALID,96.4779,VALID,-0.0509425,VALID,19.7668,VALID,132,VALID,1.8592,
2004-12-13, 03:01:00,VALID,916.983,VALID,0,VALID,96.5758,VALID,0,VALID,19.7767,VALID,139,VALID,1.36623,
2004-12-13, 03:02:00,VALID,916.951,VALID,0,VALID,96.7106,VALID,-0.0339617,VALID,19.7576,VALID,141,VALID,1.48313,
2004-12-13, 03:03:00,VALID,916.951,VALID,0,VALID,96.7844,VALID,0,VALID,19.7377,VALID,144,VALID,1.52474,
2004-12-13, 03:04:00,VALID,916.929,VALID,0,VALID,96.7831,VALID,-0.0169808,VALID,19.7315,VALID,137,VALID,1.05897,
2004-12-13, 03:05:00,VALID,916.9,VALID,0,VALID,96.7895,VALID,-0.0169808,VALID,19.7385,VALID,139,VALID,1.35823,
2004-12-13, 03:06:00,VALID,916.882,VALID,0,VALID,96.7399,VALID,0,VALID,19.7283,VALID,141,VALID,1.86643,
2004-12-13, 03:07:00,VALID,916.865,VALID,0,VALID,96.6686,VALID,0,VALID,19.7382,VALID,148,VALID,1.71697,
2004-12-13, 03:08:00,VALID,916.854,VALID,0,VALID,96.7093,VALID,0,VALID,19.7447,VALID,146,VALID,1.57196,
2004-12-13, 03:09:00,VALID,916.84,VALID,0,VALID,96.5529,VALID,0,VALID,19.738,VALID,141,VALID,1.97969,
2004-12-13, 03:10:00,VALID,916.818,VALID,0,VALID,96.3787,VALID,-0.0169808,VALID,19.7372,VALID,145,VALID,1.7167,
2004-12-13, 03:11:00,VALID,916.792,VALID,0,VALID,96.2045,VALID,-0.0169808,VALID,19.7633,VALID,146,VALID,2.46035,
2004-12-13, 03:12:00,VALID,916.769,VALID,0,VALID,96.2681,VALID,0,VALID,19.7961,VALID,149,VALID,1.96948,
2004-12-13, 03:13:00,VALID,916.724,VALID,0,VALID,96.4398,VALID,-0.0169808,VALID,19.7795,VALID,152,VALID,1.69665,
2004-12-13, 03:14:00,VALID,916.73,VALID,0,VALID,96.4169,VALID,0,VALID,19.7606,VALID,151,VALID,2.11519,
2004-12-13, 03:15:00,VALID,916.714,VALID,0,VALID,96.5199,VALID,0,VALID,19.7377,VALID,149,VALID,1.7479,
2004-12-13, 03:16:00,VALID,916.718,VALID,0,VALID,96.6419,VALID,0,VALID,19.7382,VALID,141,VALID,1.91016,
2004-12-13, 03:17:00,VALID,916.728,VALID,0,VALID,96.7564,VALID,0.0169808,VALID,19.7119,VALID,128,VALID,2.07969,
2004-12-13, 03:18:00,VALID,916.723,VALID,0,VALID,96.839,VALID,0,VALID,19.6953,VALID,142,VALID,1.53052,
2004-12-13, 03:19:00,VALID,916.692,VALID,0,VALID,96.8225,VALID,0,VALID,19.689,VALID,150,VALID,1.53757,
2004-12-13, 03:20:00,VALID,916.702,VALID,0,VALID,96.7653,VALID,0.0169808,VALID,19.7022,VALID,150,VALID,2.13224,
2004-12-13, 03:21:00,VALID,916.693,VALID,0,VALID,96.4983,VALID,0,VALID,19.7246,VALID,142,VALID,1.81738,
2004-12-13, 03:22:00,VALID,916.68,VALID,0,VALID,96.3368,VALID,0,VALID,19.7668,VALID,144,VALID,1.85243,
2004-12-13, 03:23:00,VALID,916.685,VALID,0,VALID,96.3329,VALID,0,VALID,19.78,VALID,130,VALID,1.88602,
2004-12-13, 03:24:00,VALID,916.677,VALID,0,VALID,96.3355,VALID,-0.0169808,VALID,19.7894,VALID,125,VALID,1.70561,
2004-12-13, 03:25:00,VALID,916.672,VALID,0,VALID,96.3266,VALID,-0.0169808,VALID,19.7862,VALID,145,VALID,2.18257,
2004-12-13, 03:26:00,VALID,916.672,VALID,0,VALID,96.441,VALID,-0.0169808,VALID,19.7892,VALID,126,VALID,1.29583,
2004-12-13, 03:27:00,VALID,916.68,VALID,0,VALID,96.4766,VALID,0,VALID,19.7924,VALID,127,VALID,1.63956,
2004-12-13, 03:28:00,VALID,916.683,VALID,0,VALID,96.5567,VALID,0,VALID,19.7827,VALID,107,VALID,1.46875,
2004-12-13, 03:29:00,VALID,916.67,VALID,0,VALID,96.6407,VALID,0,VALID,19.7728,VALID,118,VALID,1.52422,
2004-12-13, 03:30:00,VALID,916.661,VALID,0,VALID,96.8708,VALID,0.0169808,VALID,19.7693,VALID,118,VALID,1.69727,
2004-12-13, 03:31:00,VALID,916.639,VALID,0,VALID,96.9611,VALID,0,VALID,19.7469,VALID,126,VALID,2.09357,
2004-12-13, 03:32:00,VALID,916.652,VALID,0,VALID,96.6814,VALID,0,VALID,19.7375,VALID,146,VALID,3.04403,
2004-12-13, 03:33:00,VALID,916.667,VALID,0,VALID,96.5669,VALID,-0.0509425,VALID,19.7743,VALID,137,VALID,1.87041,
2004-12-13, 03:34:00,VALID,916.667,VALID,0,VALID,96.511,VALID,-0.0339617,VALID,19.7835,VALID,143,VALID,2.4668,